Location: Amherst
(42.5000°N, 72.5000°W)
Time: 20:22:21
(UTC-04:00)

ISS - Pass Details

Date: 21 July 2018
Orbit: 402 x 408 km, 51.6° (Epoch: 17 July)

Event Time Altitude Azimuth Distance (km) Brightness Sun altitude
Rises 23:57:06 0° 283° (WNW) 2,322 0.4 -25.5°
Reaches altitude 10° 23:59:36 10° 303° (WNW) 1,464 -0.4 -25.7°
Maximum altitude 00:02:00 19° 350° (N) 1,058 -0.9 -25.8°
Drops below altitude 10° 00:04:25 10° 37° (NE) 1,468 -0.5 -25.9°
Sets 00:06:56 0° 57° (ENE) 2,330 0.3 -26.0°
